When you browse on this site, cookies collect data to enhance your experience and personalize the content and advertising you see.
Visit our Privacy Policy to learn more. By continuing to use the site, you agree to this use of cookies and data.
  • en France
  • Liste des pays
  • À 7 jours
  • Température de l'eau
  • Carte météo
  • Widgets météo
  • user-avatar
    Se connecter

    Météo par heure à Hamburg

    Ce jour, 13 Décembre, Vendredi

    Heure Température Précipitation Vent Pression Humidité
    00:00 0°C° 0 mm 5 m/s 742 mmHg 88%
    01:00 0°C° 0 mm 5 m/s 741 mmHg 86%
    02:00 0°C° 0 mm 5 m/s 740 mmHg 85%
    03:00 0°C° 0 mm 5 m/s 739 mmHg 84%
    04:00 -1°C° 0 mm 6 m/s 737 mmHg 83%
    05:00 -2°C° 0 mm 6 m/s 737 mmHg 83%
    06:00 -2°C° 0 mm 6 m/s 736 mmHg 82%
    07:00 -2°C° 0 mm 6 m/s 736 mmHg 82%
    08:00 -2°C° 0 mm 6 m/s 735 mmHg 82%
    09:00 -2°C° 0 mm 6 m/s 734 mmHg 83%
    10:00 -2°C° 0 mm 6 m/s 734 mmHg 83%
    11:00 -1°C° 0 mm 6 m/s 734 mmHg 82%
    12:00 -1°C° 0 mm 6 m/s 734 mmHg 80%
    13:00 +1°C° 0 mm 5 m/s 733 mmHg 79%
    14:00 0°C° 0 mm 5 m/s 734 mmHg 84%
    15:00 0°C° 0 mm 5 m/s 734 mmHg 89%
    16:00 0°C° 0 mm 4 m/s 734 mmHg 94%
    17:00 0°C° 0 mm 4 m/s 734 mmHg 93%
    18:00 +1°C° 0 mm 3 m/s 734 mmHg 92%
    19:00 +1°C° 0 mm 3 m/s 735 mmHg 91%
    20:00 +2°C° 0 mm 2 m/s 735 mmHg 92%
    21:00 +3°C° 0 mm 1 m/s 735 mmHg 93%
    22:00 +3°C° 0 mm 1 m/s 736 mmHg 95%
    23:00 +3°C° 0 mm 1 m/s 736 mmHg 95%

    Demain, 14 Décembre, Samedi

    Heure Température Précipitation Vent Pression Humidité
    00:00 +3°C° 0 mm 1 m/s 736 mmHg 95%
    01:00 +3°C° 0 mm 1 m/s 736 mmHg 95%
    02:00 +3°C° 0 mm 2 m/s 736 mmHg 94%
    03:00 +2°C° 0 mm 3 m/s 736 mmHg 94%
    04:00 +2°C° 0 mm 3 m/s 736 mmHg 94%
    05:00 +3°C° 0.1 mm 4 m/s 736 mmHg 92%
    06:00 +3°C° 0.1 mm 4 m/s 736 mmHg 90%
    07:00 +3°C° 0.1 mm 5 m/s 737 mmHg 89%
    08:00 +3°C° 0 mm 5 m/s 737 mmHg 87%
    09:00 +3°C° 0 mm 4 m/s 736 mmHg 85%
    10:00 +3°C° 0 mm 4 m/s 736 mmHg 84%
    11:00 +3°C° 0.4 mm 4 m/s 736 mmHg 87%
    12:00 +3°C° 0.4 mm 4 m/s 737 mmHg 89%
    13:00 +4°C° 0.4 mm 4 m/s 737 mmHg 92%
    14:00 +3°C° 0.1 mm 5 m/s 738 mmHg 89%
    15:00 +3°C° 0.1 mm 6 m/s 739 mmHg 86%
    16:00 +3°C° 0.1 mm 7 m/s 740 mmHg 82%
    17:00 +3°C° 0 mm 7 m/s 741 mmHg 79%
    18:00 +2°C° 0 mm 6 m/s 742 mmHg 75%
    19:00 +2°C° 0 mm 6 m/s 742 mmHg 72%
    20:00 +2°C° 0.1 mm 6 m/s 743 mmHg 73%
    21:00 +2°C° 0.1 mm 6 m/s 744 mmHg 75%
    22:00 +2°C° 0.1 mm 6 m/s 744 mmHg 77%
    23:00 +1°C° 0 mm 5 m/s 745 mmHg 77%

    Après-demain, 15 Décembre, Dimanche

    Heure Température Précipitation Vent Pression Humidité
    00:00 +1°C° 0 mm 5 m/s 745 mmHg 76%
    01:00 0°C° 0 mm 4 m/s 746 mmHg 75%
    02:00 0°C° 0 mm 4 m/s 745 mmHg 79%
    03:00 +1°C° 0 mm 4 m/s 745 mmHg 82%
    04:00 +1°C° 0 mm 4 m/s 744 mmHg 86%
    05:00 +2°C° 0.8 mm 5 m/s 744 mmHg 87%
    06:00 +3°C° 0.8 mm 5 m/s 743 mmHg 88%
    07:00 +3°C° 0.8 mm 6 m/s 742 mmHg 89%
    08:00 +3°C° 0.2 mm 7 m/s 743 mmHg 82%
    09:00 +2°C° 0.2 mm 8 m/s 744 mmHg 74%
    10:00 +2°C° 0.2 mm 9 m/s 744 mmHg 66%
    11:00 +3°C° 0 mm 9 m/s 746 mmHg 65%
    12:00 +3°C° 0 mm 9 m/s 747 mmHg 65%
    13:00 +3°C° 0 mm 9 m/s 748 mmHg 64%
    14:00 +4°C° 0 mm 7 m/s 749 mmHg 67%
    15:00 +3°C° 0 mm 6 m/s 750 mmHg 70%
    16:00 +4°C° 0 mm 4 m/s 751 mmHg 73%
    17:00 +3°C° 0 mm 5 m/s 751 mmHg 75%
    18:00 +2°C° 0 mm 5 m/s 752 mmHg 77%
    19:00 +2°C° 0 mm 5 m/s 752 mmHg 79%
    20:00 +2°C° 0 mm 5 m/s 753 mmHg 79%
    21:00 +2°C° 0 mm 5 m/s 753 mmHg 79%
    22:00 +2°C° 0 mm 5 m/s 753 mmHg 79%
    23:00 +3°C° 0 mm 4 m/s 753 mmHg 81%

    16 Décembre, Lundi

    Heure Température Précipitation Vent Pression Humidité
    00:00 +3°C° 0 mm 4 m/s 753 mmHg 82%
    01:00 +3°C° 0 mm 4 m/s 754 mmHg 83%
    02:00 +3°C° 0 mm 4 m/s 753 mmHg 83%
    03:00 +3°C° 0 mm 4 m/s 753 mmHg 84%
    04:00 +3°C° 0 mm 5 m/s 753 mmHg 84%
    05:00 +3°C° 0 mm 5 m/s 753 mmHg 85%
    06:00 +3°C° 0 mm 5 m/s 753 mmHg 87%
    07:00 +4°C° 0 mm 4 m/s 753 mmHg 88%
    08:00 +5°C° 0 mm 4 m/s 754 mmHg 87%
    09:00 +5°C° 0 mm 4 m/s 754 mmHg 86%
    10:00 +5°C° 0 mm 4 m/s 754 mmHg 85%
    11:00 +6°C° 0 mm 4 m/s 754 mmHg 84%
    12:00 +6°C° 0 mm 4 m/s 754 mmHg 84%
    13:00 +7°C° 0 mm 4 m/s 754 mmHg 83%
    14:00 +8°C° 0 mm 3 m/s 754 mmHg 86%
    15:00 +7°C° 0 mm 3 m/s 754 mmHg 88%
    16:00 +7°C° 0 mm 2 m/s 754 mmHg 90%
    17:00 +7°C° 0 mm 2 m/s 754 mmHg 91%
    18:00 +7°C° 0 mm 3 m/s 754 mmHg 91%
    19:00 +7°C° 0 mm 3 m/s 754 mmHg 91%
    20:00 +6°C° 0.1 mm 2 m/s 754 mmHg 92%
    21:00 +6°C° 0.1 mm 2 m/s 754 mmHg 93%
    22:00 +6°C° 0.1 mm 2 m/s 754 mmHg 94%
    23:00 +7°C° 0.2 mm 1 m/s 754 mmHg 95%

    17 Décembre, Mardi

    Heure Température Précipitation Vent Pression Humidité
    00:00 +7°C° 0.2 mm 1 m/s 753 mmHg 95%
    01:00 +7°C° 0.2 mm 1 m/s 753 mmHg 96%
    02:00 +7°C° 0.3 mm 1 m/s 753 mmHg 96%
    03:00 +7°C° 0.3 mm 1 m/s 753 mmHg 96%
    04:00 +7°C° 0.3 mm 1 m/s 753 mmHg 97%
    05:00 +7°C° 0.5 mm 1 m/s 753 mmHg 97%
    06:00 +7°C° 0.5 mm 1 m/s 753 mmHg 97%
    07:00 +7°C° 0.5 mm 1 m/s 753 mmHg 97%
    08:00 +7°C° 0.3 mm 1 m/s 753 mmHg 95%
    09:00 +8°C° 0.3 mm 1 m/s 753 mmHg 94%
    10:00 +8°C° 0.3 mm 1 m/s 753 mmHg 92%
    11:00 +8°C° 0.7 mm 1 m/s 753 mmHg 92%
    12:00 +8°C° 0.7 mm 1 m/s 753 mmHg 92%
    13:00 +8°C° 0.7 mm 1 m/s 753 mmHg 92%
    14:00 +8°C° 0.3 mm 1 m/s 753 mmHg 92%
    15:00 +7°C° 0.3 mm 2 m/s 753 mmHg 92%
    16:00 +7°C° 0.3 mm 2 m/s 754 mmHg 93%
    17:00 +7°C° 0.5 mm 2 m/s 754 mmHg 93%
    18:00 +8°C° 0.5 mm 2 m/s 754 mmHg 94%
    19:00 +8°C° 0.5 mm 2 m/s 754 mmHg 95%
    20:00 +8°C° 0 mm 2 m/s 754 mmHg 96%
    21:00 +8°C° 0 mm 3 m/s 755 mmHg 96%
    22:00 +8°C° 0 mm 3 m/s 756 mmHg 96%
    23:00 +7°C° 0.1 mm 3 m/s 756 mmHg 95%

    18 Décembre, Mercredi

    Heure Température Précipitation Vent Pression Humidité
    00:00 +7°C° 0.1 mm 3 m/s 757 mmHg 93%
    01:00 +5°C° 0.1 mm 4 m/s 758 mmHg 92%
    02:00 +4°C° 0 mm 3 m/s 759 mmHg 93%
    03:00 +5°C° 0 mm 2 m/s 760 mmHg 93%
    04:00 +4°C° 0 mm 2 m/s 761 mmHg 94%
    05:00 +4°C° 0 mm 2 m/s 762 mmHg 94%
    06:00 +3°C° 0 mm 2 m/s 763 mmHg 94%
    07:00 +3°C° 0 mm 2 m/s 763 mmHg 94%
    08:00 +3°C° 0 mm 2 m/s 764 mmHg 93%
    09:00 +3°C° 0 mm 2 m/s 765 mmHg 93%
    10:00 +4°C° 0 mm 2 m/s 765 mmHg 93%
    11:00 +4°C° 0 mm 2 m/s 765 mmHg 90%
    12:00 +5°C° 0 mm 2 m/s 766 mmHg 87%
    13:00 +6°C° 0 mm 2 m/s 766 mmHg 85%
    14:00 +5°C° 0 mm 2 m/s 766 mmHg 87%
    15:00 +6°C° 0 mm 1 m/s 766 mmHg 89%
    16:00 +5°C° 0 mm 1 m/s 767 mmHg 92%
    17:00 +5°C° 0 mm 1 m/s 767 mmHg 92%
    18:00 +5°C° 0 mm 1 m/s 767 mmHg 93%
    19:00 +4°C° 0 mm 1 m/s 767 mmHg 93%
    20:00 +3°C° 0 mm 2 m/s 767 mmHg 93%
    21:00 +3°C° 0 mm 2 m/s 767 mmHg 93%
    22:00 +3°C° 0 mm 2 m/s 767 mmHg 93%
    23:00 +3°C° 0 mm 2 m/s 767 mmHg 93%
    Voir plus